N4LLZ-13 Weather Reports


Display with metric or nautical units.
time (UTC)temp
F
wind
direction
speed
MPH
gust
MPH
rain 1hr
in
rain 24hr
in
rain mn
in
humidity
%
barometer
mb
20260508015930 54 0 0.0 0.0 0.00 3.04 3.28 99 1012.5
20260508015429 54 0 0.0 0.0 0.00 3.04 3.28 99 1012.5
20260508014928 54 170 0.0 1.0 0.00 3.04 3.28 99 1012.5
20260508014427 54 0 0.0 0.0 0.00 3.04 3.28 99 1012.1
20260508013927 54 52 0.0 1.0 0.10 3.04 3.28 99 1011.8
20260508013426 54 0 0.0 0.0 0.61 3.04 3.28 99 1011.8
20260508012925 54 87 0.0 0.0 1.08 3.04 3.28 99 1011.7
20260508012424 54 76 0.0 0.0 3.29 3.21 3.45 99 1011.7
20260508011924 54 2 1.0 1.0 3.55 3.21 3.45 99 1011.9
20260508011423 54 359 0.0 0.0 3.57 3.21 3.45 99 1011.7
20260508010922 54 0 0.0 0.0 3.57 3.21 3.45 99 1011.8
20260508010421 54 40 0.0 1.0 3.44 3.20 3.44 99 1011.8
20260508005921 54 8 0.0 0.0 3.44 3.20 3.44 100 1011.7
20260508005420 54 225 0.0 0.0 3.44 3.20 3.44 99 1011.8
20260508004919 54 259 0.0 0.0 2.10 3.07 3.30 99 1011.7
20260508004418 54 77 1.0 1.0 1.73 3.03 3.27 99 1011.2
20260508003917 54 315 0.0 1.0 1.22 2.98 3.22 98 1011.7
20260508003417 54 317 1.0 2.0 0.75 2.93 3.17 98 1011.8
20260508002916 54 356 1.0 1.0 0.27 2.88 3.12 97 1011.8
20260508002415 54 331 0.0 1.0 0.01 2.86 3.09 97 1011.8
20260508001915 54 351 1.0 1.0 0.00 2.86 3.09 97 1011.3
20260508001414 54 45 1.0 1.0 0.00 2.86 3.09 97 1011.0
20260508000913 54 0 0.0 1.0 0.00 2.86 3.09 97 1010.8
20260508000413 54 26 1.0 1.0 0.00 2.86 3.09 96 1010.5
20260507235912 54 5 1.0 1.0 0.00 2.86 3.09 96 1010.6
20260507235411 54 45 1.0 1.0 0.00 2.86 3.09 97 1010.5
20260507234910 54 77 1.0 1.0 0.00 2.86 3.09 96 1010.5
20260507234409 54 95 1.0 2.0 0.00 2.86 3.09 96 1010.7
20260507233908 54 87 1.0 2.0 0.00 2.86 3.09 96 1010.7
20260507233408 54 96 1.0 2.0 0.00 2.86 3.09 96 1010.7
20260507232907 54 68 1.0 2.0 0.00 2.86 3.09 96 1010.6
20260507232406 54 54 0.0 1.0 0.00 2.86 3.09 96 1010.7
20260507231905 54 56 0.0 1.0 0.00 2.86 3.09 96 1010.8
20260507231404 54 44 0.0 1.0 0.00 2.86 3.09 96 1010.6
20260507230904 55 47 1.0 2.0 0.00 2.86 3.09 95 1010.5
20260507230403 55 47 0.0 1.0 0.00 2.86 3.09 95 1010.5
20260507225902 55 50 1.0 2.0 0.00 2.86 3.09 94 1010.6
20260507225401 55 53 1.0 3.0 0.00 2.86 3.09 94 1010.4
20260507224901 55 47 1.0 2.0 0.00 2.86 3.09 95 1010.2
20260507224400 55 89 1.0 2.0 0.00 2.86 3.09 94 1010.4
20260507223900 55 44 1.0 2.0 0.00 2.86 3.09 95 1010.4
20260507223358 55 48 1.0 2.0 0.00 2.86 3.09 94 1010.2
20260507222858 55 50 1.0 3.0 0.00 2.86 3.09 95 1010.3
20260507222357 55 74 1.0 3.0 0.00 2.86 3.09 94 1010.2
20260507221856 55 70 1.0 2.0 0.00 2.86 3.09 94 1010.2
20260507221355 55 339 1.0 2.0 0.00 2.86 3.09 94 1010.5
20260507220855 55 65 1.0 2.0 0.00 2.86 3.09 94 1010.3
20260507220354 55 59 1.0 3.0 0.00 2.86 3.09 94 1010.4
20260507215853 55 53 1.0 1.0 0.00 2.86 3.09 94 1010.2
20260507215352 55 44 1.0 2.0 0.00 2.86 3.09 95 1010.3
20260507214852 55 36 1.0 2.0 0.00 2.86 3.09 95 1010.3
20260507214351 54 7 1.0 1.0 0.00 2.86 3.09 96 1010.1
20260507213850 54 61 1.0 3.0 0.00 2.86 3.09 95 1010.1
20260507213349 54 2 1.0 2.0 0.00 2.86 3.09 95 1010.3
20260507212848 54 42 1.0 2.0 0.00 2.86 3.09 94 1010.2
20260507212348 54 27 2.0 4.0 0.00 2.86 3.09 94 1010.2
20260507211847 54 61 1.0 3.0 0.00 2.86 3.09 94 1010.1
20260507211346 55 7 2.0 3.0 0.00 2.86 3.09 95 1010.0
20260507210845 55 16 1.0 2.0 0.00 2.86 3.09 96 1009.9
20260507210345 55 67 1.0 2.0 0.00 2.86 3.09 96 1009.7
20260507205844 55 65 2.0 3.0 0.00 2.85 3.09 96 1009.7
20260507205343 55 20 1.0 1.0 0.00 2.85 3.09 98 1009.5
20260507204842 55 17 1.0 2.0 0.00 2.85 3.09 98 1009.5
20260507204342 56 316 1.0 2.0 0.00 2.85 3.09 98 1009.5
20260507203841 56 351 1.0 2.0 0.00 2.85 3.09 98 1009.7
20260507203340 56 44 1.0 3.0 0.00 2.85 3.09 99 1009.4
20260507202839 56 65 1.0 1.0 0.00 2.85 3.09 98 1009.2
20260507202338 56 39 1.0 3.0 0.00 2.79 3.09 99 1009.3
20260507201838 56 17 1.0 2.0 0.00 2.79 3.09 99 1009.2
20260507201337 56 58 1.0 2.0 0.00 2.79 3.09 100 1009.1
20260507200836 56 46 1.0 2.0 0.00 2.79 3.09 99 1009.1
20260507200335 56 14 1.0 3.0 0.00 2.85 3.11 100 1009.0
20260507195835 56 352 1.0 2.0 0.00 2.85 3.11 99 1009.1
20260507195334 57 11 1.0 2.0 0.00 2.85 3.11 99 1009.2
20260507194833 57 354 1.0 2.0 0.00 2.87 3.11 99 1009.2
20260507194332 57 47 1.0 2.0 0.00 2.90 3.11 99 1009.1
20260507193832 58 52 1.0 2.0 0.00 2.93 3.11 99 1009.0
20260507193331 58 355 1.0 2.0 0.00 2.95 3.11 100 1009.1
20260507192830 58 14 1.0 1.0 0.00 2.98 3.11 99 1009.4
20260507192329 59 342 1.0 2.0 0.43 3.24 3.31 100 1009.3
20260507191828 59 40 1.0 1.0 5.57 3.27 3.31 100 1009.2
20260507191327 59 2 1.0 3.0 5.57 3.28 3.31 100 1009.0
20260507190827 59 352 1.0 2.0 5.52 3.28 3.29 100 1008.8
20260507190326 59 33 1.0 1.0 6.44 3.27 3.29 99 1008.6
20260507185825 59 62 1.0 3.0 7.80 3.29 3.29 100 1008.1
20260507185324 59 13 1.0 2.0 9.32 3.28 3.28 99 1008.8
20260507184823 59 48 1.0 3.0 9.69 3.27 3.27 99 1008.9
20260507184323 59 334 1.0 2.0 9.97 3.26 3.26 100 1009.2
20260507183822 59 74 1.0 2.0 9.97 3.26 3.26 100 1009.3
20260507183321 60 13 1.0 2.0 9.97 3.26 3.26 99 1008.7
20260507182820 60 53 1.0 2.0 9.97 3.26 3.26 99 1008.4
20260507182319 60 25 1.0 2.0 4.84 2.75 2.75 99 1008.4
20260507181819 60 56 1.0 2.0 4.77 2.75 2.75 99 1008.5
20260507181318 61 68 1.0 4.0 4.63 2.73 2.73 99 1008.3
20260507180817 62 59 1.0 2.0 3.70 2.64 2.64 100 1008.6
20260507180316 63 33 1.0 2.0 2.43 2.51 2.51 99 1008.9
20260507175815 66 351 1.0 3.0 0.85 2.35 2.35 96 1008.6
20260507175314 70 71 2.0 4.0 0.46 2.30 2.30 93 1008.6
20260507174814 71 285 1.0 1.0 0.22 2.27 2.27 96 1008.4
20260507174313 71 306 1.0 1.0 0.23 2.27 2.27 95 1008.2
20260507173812 71 107 0.0 1.0 0.24 2.27 2.27 95 1008.0
20260507173311 71 254 0.0 1.0 0.36 2.27 2.27 95 1008.1
20260507172810 71 226 0.0 1.0 0.37 2.27 2.27 94 1008.0
20260507172310 71 130 1.0 1.0 0.44 2.27 2.27 95 1007.7
20260507171809 72 106 1.0 2.0 0.25 2.27 2.27 93 1007.6
20260507171308 72 142 0.0 1.0 0.28 2.27 2.27 95 1007.8
20260507170807 71 142 0.0 1.0 0.20 2.26 2.26 96 1007.8
20260507170306 70 227 0.0 0.0 0.21 2.26 2.26 98 1007.9
20260507165806 70 169 0.0 0.0 0.01 2.26 2.26 98 1008.1
20260507165306 70 212 0.0 0.0 0.00 2.24 2.24 98 1008.3
20260507164804 69 213 0.0 0.0 0.00 2.24 2.24 98 1008.6
20260507164303 69 198 0.0 1.0 0.00 2.24 2.24 98 1009.0
20260507163802 69 242 1.0 1.0 0.00 2.23 2.23 99 1009.0
20260507163301 69 210 0.0 0.0 0.00 2.23 2.23 99 1008.9
20260507162801 69 206 0.0 0.0 0.00 2.23 2.23 99 1009.2
20260507162300 69 197 0.0 1.0 0.18 2.25 2.25 99 1009.3
20260507161759 69 275 1.0 1.0 0.00 2.24 2.24 99 1009.3
20260507161258 69 274 1.0 1.0 0.00 2.24 2.24 99 1009.5
20260507160757 69 152 0.0 0.0 0.00 2.24 2.24 99 1009.5
20260507160257 69 213 1.0 1.0 0.00 2.26 2.26 99 1009.7
20260507155756 69 283 1.0 1.0 0.00 2.26 2.26 98 1009.4
20260507155255 69 211 1.0 1.0 0.00 2.25 2.25 97 1009.0
20260507154754 69 272 1.0 1.0 1.37 2.25 2.25 99 1008.9
20260507154253 69 297 0.0 1.0 2.17 2.25 2.25 99 1008.8
20260507153753 68 208 0.0 1.0 2.75 2.24 2.24 100 1008.9
20260507153252 68 239 0.0 1.0 6.19 2.23 2.23 100 1009.1
20260507152751 68 295 1.0 1.0 7.42 2.23 2.23 99 1009.1
20260507152250 68 279 1.0 1.0 1.39 2.75 2.75 99 1009.3
20260507151749 67 284 1.0 2.0 1.46 2.74 2.74 99 1009.4
20260507151249 67 261 1.0 1.0 1.50 2.73 2.73 99 1009.5
20260507150748 67 245 0.0 1.0 1.48 2.69 2.69 99 1009.5
20260507150247 67 243 1.0 1.0 1.46 2.67 2.67 99 1009.8
20260507145746 67 281 1.0 1.0 1.43 2.64 2.64 99 1009.7
20260507145245 67 115 0.0 1.0 9.09 2.11 2.11 99 1009.7
20260507144745 67 224 1.0 2.0 8.29 2.03 2.03 99 1009.7
20260507144244 67 268 1.0 1.0 7.56 1.96 1.96 99 1009.7
20260507143743 67 217 1.0 1.0 4.11 1.61 1.61 99 1009.8
20260507143242 68 301 1.0 2.0 2.85 1.49 1.49 99 1010.0
20260507142741 68 281 1.0 2.0 1.52 1.35 1.35 99 1010.0
20260507142241 68 307 1.0 1.0 0.73 1.28 1.28 99 1010.0
20260507141740 68 265 0.0 1.0 0.23 1.23 1.23 99 1010.0
20260507141239 68 268 0.0 0.0 0.15 1.21 1.21 99 1010.0
20260507140738 68 265 0.0 1.0 0.18 1.20 1.20 99 1010.0
20260507140237 68 292 0.0 0.0 0.36 1.20 1.20 99 1010.0
20260507135736 68 302 1.0 1.0 0.44 1.20 1.20 99 1010.0
20260507135236 68 297 0.0 0.0 0.45 1.20 1.20 99 1010.0
20260507134735 68 307 0.0 1.0 0.50 1.20 1.20 99 1010.0
20260507134234 68 331 1.0 1.0 0.50 1.20 1.20 99 1010.0
20260507133733 68 236 1.0 1.0 0.49 1.20 1.20 99 1010.0
20260507133232 68 229 0.0 1.0 0.63 1.20 1.20 99 1010.1
20260507132731 68 249 1.0 1.0 0.63 1.20 1.20 99 1010.1
20260507132230 68 195 0.0 1.0 0.66 1.21 1.21 99 1010.1
20260507131729 68 285 0.0 0.0 0.58 1.20 1.20 99 1010.1
20260507131228 68 308 0.0 0.0 0.49 1.19 1.19 99 1010.0
20260507130727 68 290 1.0 1.0 0.31 1.17 1.17 99 1010.0
20260507130227 67 306 1.0 1.0 0.23 1.16 1.16 99 1010.0
20260507125726 67 298 1.0 1.0 0.22 1.16 1.16 99 1010.0
20260507125225 67 266 0.0 1.0 0.17 1.15 1.15 99 1010.0
20260507124725 67 262 0.0 0.0 0.17 1.15 1.15 99 1010.0
20260507124224 67 314 1.0 1.0 0.17 1.15 1.15 99 1010.0
20260507123723 67 292 1.0 2.0 0.03 1.14 1.14 99 1010.0
20260507123222 67 42 0.0 1.0 0.03 1.14 1.14 99 1010.0
20260507122722 67 77 0.0 1.0 0.03 1.14 1.14 99 1010.1
20260507122221 67 291 0.0 1.0 0.03 1.14 1.14 99 1010.2
20260507121721 67 303 0.0 0.0 0.00 1.14 1.14 99 1010.2
20260507121220 67 309 0.0 0.0 0.00 1.14 1.14 99 1010.4
20260507120720 67 102 0.0 0.0 0.00 1.14 1.14 99 1010.4
20260507120219 67 89 0.0 0.0 0.00 1.14 1.14 99 1010.3
20260507115718 67 204 0.0 0.0 0.00 1.14 1.14 99 1010.4
20260507115217 67 263 0.0 0.0 0.00 1.14 1.14 99 1010.5
20260507114716 67 275 0.0 0.0 0.03 1.14 1.14 99 1010.6
20260507114216 67 0 0.0 0.0 0.03 1.14 1.14 99 1010.6
20260507113715 66 268 0.0 1.0 0.04 1.14 1.14 99 1010.6
20260507113214 66 259 0.0 0.0 0.13 1.14 1.14 99 1010.5
20260507112713 66 129 0.0 0.0 0.14 1.14 1.14 99 1010.6
20260507112212 66 304 0.0 1.0 0.17 1.14 1.14 99 1010.6
20260507111711 66 275 1.0 1.0 0.00 1.14 1.14 99 1010.8
20260507111211 66 357 0.0 1.0 0.00 1.14 1.14 99 1010.6
20260507110710 66 151 0.0 1.0 0.00 1.14 1.14 99 1010.4
20260507110209 66 33 0.0 0.0 0.00 1.14 1.14 99 1010.4
20260507105708 66 157 0.0 1.0 0.00 1.14 1.14 99 1010.3
20260507105208 66 245 0.0 0.0 0.00 1.13 1.13 99 1010.4
20260507104707 66 281 0.0 1.0 0.00 1.13 1.13 99 1010.4
20260507104206 66 297 1.0 2.0 0.00 1.13 1.13 99 1010.3
20260507103705 66 276 0.0 1.0 0.00 1.12 1.12 99 1010.2
20260507103204 66 40 1.0 1.0 0.32 1.12 1.12 99 1010.1
20260507102704 66 278 0.0 0.0 0.31 1.12 1.12 99 1010.1
20260507102203 66 294 1.0 1.0 0.81 1.15 1.15 99 1010.3
20260507101702 66 177 0.0 0.0 0.00 1.15 1.15 99 1010.5
20260507101201 66 249 0.0 0.0 0.00 1.14 1.14 99 1010.3
20260507100700 66 269 0.0 0.0 0.00 1.14 1.14 99 1010.2
20260507100159 66 281 0.0 1.0 0.17 1.15 1.15 99 1010.2
20260507095659 66 295 1.0 1.0 0.20 1.15 1.15 99 1010.1
20260507095158 66 327 1.0 1.0 0.19 1.14 1.14 99 1010.2
20260507094657 66 240 0.0 1.0 2.41 1.14 1.14 99 1010.2
20260507094156 66 312 0.0 1.0 3.13 1.14 1.14 99 1010.2
20260507093655 66 253 1.0 1.0 3.41 1.09 1.09 99 1010.0
20260507093155 66 207 0.0 1.0 4.23 1.09 1.09 99 1010.0
20260507092654 66 339 0.0 0.0 4.84 1.07 1.07 99 1010.1
20260507092153 66 111 0.0 1.0 6.45 1.20 1.20 99 1010.2
20260507091652 66 223 0.0 1.0 6.76 1.20 1.20 99 1010.3
20260507091152 66 178 0.0 1.0 6.97 1.19 1.19 99 1010.3
20260507090651 66 195 0.0 0.0 6.66 1.13 1.13 99 1010.1
20260507090150 66 81 0.0 1.0 6.71 1.13 1.13 99 1010.2
20260507085649 66 123 0.0 1.0 6.92 1.12 1.12 99 1010.4
20260507085148 66 128 0.0 0.0 4.89 9.04 9.04 99 1010.5
20260507084647 66 328 0.0 0.0 4.62 8.32 8.32 99 1010.9
20260507084147 66 355 0.0 0.0 3.90 7.54 7.54 99 1010.7
20260507083646 66 0 0.0 0.0 3.06 6.69 6.69 99 1010.8
20260507083145 66 154 0.0 0.0 2.13 5.94 5.94 99 1011.0
20260507082645 66 0 0.0 0.0 1.89 5.58 5.58 99 1011.2
20260507082144 66 319 1.0 1.0 1.82 5.26 5.26 99 1011.1
20260507081644 66 322 0.0 1.0 1.71 5.01 5.01 99 1011.1
20260507081142 66 107 0.0 0.0 1.45 4.71 4.71 99 1010.7
20260507080641 66 300 0.0 0.0 1.34 4.60 4.60 99 1011.0
20260507080141 66 78 0.0 0.0 1.08 4.34 4.34 99 1010.2
20260507075640 66 78 1.0 1.0 0.54 4.15 4.15 99 1010.5
20260507075139 66 108 0.0 1.0 0.09 3.70 3.70 99 1010.7
20260507074638 66 26 0.0 0.0 0.03 3.64 3.64 99 1011.3
20260507074138 66 348 0.0 1.0 0.03 3.63 3.63 99 1011.3
20260507073637 66 274 0.0 0.0 0.20 3.80 3.80 99 1011.2
20260507073136 66 351 0.0 0.0 0.09 3.69 3.69 99 1011.4
20260507072635 66 131 0.0 1.0 0.00 3.44 3.44 99 1011.2
20260507072135 66 169 0.0 1.0 0.00 3.29 3.29 99 1011.1
20260507071634 66 352 1.0 1.0 0.18 3.26 3.26 99 1011.3
20260507071133 65 77 0.0 0.0 0.18 3.26 3.26 99 1011.0
20260507070632 65 173 0.0 1.0 0.18 3.26 3.26 99 1011.2
20260507070132 65 0 0.0 0.0 0.53 3.61 3.61 99 1011.5
20260507065631 66 14 0.0 0.0 1.18 3.61 3.61 99 1011.3
20260507065130 66 67 0.0 0.0 1.18 3.61 3.61 99 1011.3
20260507064629 66 76 0.0 0.0 1.18 3.61 3.61 99 1011.5
20260507064128 66 63 0.0 0.0 1.18 3.61 3.61 99 1011.8
20260507063628 66 0 0.0 0.0 1.18 3.61 3.61 99 1011.8
20260507063127 66 358 0.0 1.0 1.33 3.61 3.61 99 1012.0
20260507062626 66 47 0.0 1.0 1.33 3.61 3.61 99 1011.8
20260507062125 66 69 0.0 0.0 0.81 3.08 3.08 99 1012.2
20260507061624 66 171 1.0 1.0 0.00 3.08 3.08 99 1012.4
20260507061124 66 2 0.0 0.0 0.28 3.08 3.08 99 1012.4
20260507060623 66 293 0.0 1.0 0.74 3.08 3.08 99 1012.2
20260507060122 66 0 0.0 0.0 0.35 2.42 2.42 100 1011.8
20260507055621 66 235 0.0 0.0 0.71 2.42 2.42 100 1012.0
20260507055120 66 352 0.0 0.0 1.28 2.42 2.42 100 1012.0
20260507054620 66 293 0.0 0.0 1.73 2.42 2.42 99 1012.0
20260507054119 66 238 0.0 0.0 1.85 2.42 2.42 99 1011.5
20260507053618 66 104 0.0 0.0 2.05 2.27 2.27 99 1011.4
20260507053117 66 190 0.0 0.0 2.20 2.27 2.27 99 1011.6
20260507052617 66 204 0.0 1.0 2.20 2.27 2.27 98 1011.4
20260507052116 67 129 0.0 1.0 4.06 4.13 4.13 98 1011.6
20260507051616 67 149 1.0 1.0 2.75 2.80 2.80 97 1012.5
20260507051115 67 317 0.0 1.0 2.28 2.34 2.34 97 1013.3
20260507050614 67 268 1.0 1.0 2.06 2.07 2.07 96 1013.2
20260507050113 68 289 1.0 1.0 1.71 1.71 1.71 95 1013.4
20260507045613 68 310 1.0 1.0 0.00 1.14 1.14 93 1013.5
20260507045112 68 285 1.0 1.0 0.00 0.69 0.69 92 1013.8
20260507044611 69 263 1.0 1.0 0.00 0.57 0.57 89 1013.7
20260507044110 69 254 1.0 1.0 0.00 0.22 0.22 87 1013.7
20260507043609 70 295 0.0 1.0 0.00 0.07 0.07 85 1013.3
20260507043109 70 324 1.0 1.0 0.00 0.07 0.07 85 1013.0
20260507042608 70 294 1.0 1.0 0.00 0.07 0.07 84 1013.0
20260507042107 70 312 0.0 0.0 0.00 0.05 0.05 83 1012.9
20260507041607 70 21 0.0 1.0 0.00 0.05 0.05 82 1012.9
20260507041106 70 287 1.0 2.0 0.00 0.02 0.02 83 1012.9
20260507040605 70 272 1.0 1.0 0.00 0.00 0.00 84 1012.8
20260507040105 71 263 0.0 0.0 0.58 2.95 2.95 83 1012.6
20260507035604 72 260 0.0 1.0 0.58 2.95 2.95 80 1012.5
20260507035103 73 231 0.0 1.0 0.59 2.96 2.96 77 1012.2
20260507034602 73 161 0.0 1.0 0.32 2.69 2.69 73 1012.0
20260507034102 73 222 0.0 1.0 0.10 2.47 2.47 72 1012.0
20260507033601 74 164 0.0 1.0 0.00 2.37 2.37 70 1012.2
20260507033100 74 279 1.0 1.0 0.00 2.37 2.37 70 1012.3
20260507032559 74 303 1.0 1.0 0.00 2.37 2.37 70 1012.5
20260507032058 74 286 1.0 1.0 0.00 2.37 2.37 70 1012.5
20260507031558 74 270 1.0 1.0 0.00 2.37 2.37 70 1012.5
20260507031057 74 280 0.0 1.0 0.00 2.37 2.37 70 1012.4
20260507030556 74 268 1.0 2.0 0.00 2.37 2.37 69 1012.2
20260507030055 74 272 1.0 2.0 0.00 2.37 2.37 70 1012.2
20260507025555 74 281 1.0 2.0 0.00 2.37 2.37 70 1012.2
20260507025054 74 299 0.0 1.0 0.00 2.37 2.37 70 1012.1
20260507024553 74 292 0.0 1.0 0.00 2.37 2.37 70 1012.1
20260507024052 74 292 1.0 2.0 0.00 2.37 2.37 69 1011.9
20260507023551 74 0 0.0 0.0 0.00 2.37 2.37 69 1011.9
20260507023051 74 249 0.0 1.0 0.00 2.37 2.37 69 1011.9
20260507022550 74 242 0.0 1.0 0.00 2.37 2.37 69 1012.1
20260507022049 74 100 1.0 2.0 0.00 2.37 2.37 69 1011.9
20260507021548 74 134 1.0 1.0 0.00 2.37 2.37 69 1011.9
20260507021048 74 188 1.0 2.0 0.00 2.37 2.37 68 1012.0
20260507020547 74 337 0.0 1.0 0.00 2.37 2.37 69 1012.0